FW8483 Weather Reports


time (UTC)temp
C
wind
direction
speed
KPH
gust
KPH
rain 1hr
cm
rain 24hr
cm
rain mn
cm
humidity
%
barometer
mb
20260509061522 17 342 1.6 6.4 0.00 2.62 0.00 95 1012.7
20260509061005 17 283 0.0 6.4 0.00 2.62 0.00 95 1012.7
20260509060509 17 272 3.2 6.4 0.00 2.62 0.00 95 1012.9
20260509060025 17 304 1.6 6.4 0.00 2.62 0.00 95 1012.8
20260509055510 18 318 1.6 6.4 0.00 2.62 0.00 95 1012.6
20260509055008 18 325 1.6 6.4 0.00 2.62 0.00 95 1012.3
20260509054527 18 40 3.2 6.4 0.00 2.62 0.00 95 1012.2
20260509054008 18 308 3.2 8.0 0.00 2.62 0.00 95 1012.6
20260509053504 18 305 1.6 20.9 0.00 2.62 0.00 95 1012.3
20260509053016 18 346 9.7 20.9 0.00 2.62 0.00 95 1012.4
20260509052502 18 360 9.7 17.7 0.00 2.62 0.00 94 1012.1
20260509052008 18 306 1.6 20.9 0.03 2.62 0.00 95 1012.0
20260509051520 18 172 11.3 27.4 0.03 2.62 0.00 95 1011.3
20260509051007 18 135 11.3 27.4 0.03 2.62 0.00 95 1010.7
20260509050506 18 179 12.9 24.1 0.03 2.62 0.00 95 1010.7
20260509050035 18 178 12.9 17.7 0.03 2.62 0.00 95 1011.3
20260509045506 18 163 9.7 16.1 0.03 2.62 2.62 95 1012.1
20260509045007 18 149 9.7 16.1 0.03 2.62 2.62 95 1012.2
20260509044527 18 192 3.2 19.3 0.03 2.62 2.62 95 1012.3
20260509044007 18 173 9.7 19.3 0.03 2.62 2.62 95 1012.0
20260509043506 17 162 14.5 19.3 0.03 2.62 2.62 95 1011.8
20260509043027 17 162 11.3 22.5 0.03 2.62 2.62 95 1012.2
20260509042503 17 178 11.3 24.1 0.03 2.62 2.62 95 1012.3
20260509042007 17 184 12.9 24.1 0.00 2.59 2.59 95 1012.1
20260509041518 17 138 14.5 24.1 0.00 2.59 2.59 95 1012.1
20260509041004 17 142 9.7 24.1 0.00 2.59 2.59 95 1012.5
20260509040507 17 121 8.0 24.1 0.00 2.59 2.59 96 1013.0
20260509040023 17 119 11.3 24.1 0.00 2.59 2.59 96 1012.9
20260509035510 17 194 12.9 24.1 0.00 2.59 2.59 96 1013.4
20260509035007 17 167 11.3 24.1 0.00 2.59 2.59 96 1013.2
20260509034526 17 174 16.1 24.1 0.00 2.59 2.59 96 1013.2
20260509034010 17 170 12.9 19.3 0.00 2.59 2.59 96 1013.4
20260509033510 17 153 11.3 14.5 0.00 2.59 2.59 96 1013.8
20260509033028 17 150 3.2 4.8 0.00 2.59 2.59 96 1014.0
20260509032511 17 317 0.0 3.2 0.00 2.59 2.59 96 1014.3
20260509032005 17 331 0.0 4.8 0.00 2.59 2.59 96 1014.4
20260509031522 17 331 1.6 4.8 0.00 2.59 2.59 96 1014.2
20260509031003 17 165 0.0 6.4 0.00 2.59 2.59 96 1014.4
20260509030508 18 180 3.2 6.4 0.00 2.59 2.59 96 1015.0
20260509030032 18 159 4.8 6.4 0.00 2.59 2.59 96 1015.2
20260509025507 17 211 0.0 1.6 0.00 2.59 2.59 96 1015.1
20260509025007 17 211 0.0 1.6 0.00 2.59 2.59 96 1014.7
20260509024525 17 273 0.0 0.0 0.00 2.59 2.59 96 1014.6
20260509024006 17 273 0.0 6.4 0.00 2.59 2.59 96 1014.6
20260509023503 17 273 0.0 6.4 0.00 2.59 2.59 96 1014.5
20260509023015 17 344 3.2 6.4 0.00 2.59 2.59 96 1014.2
20260509022504 17 331 3.2 4.8 0.00 2.59 2.59 96 1013.5
20260509022004 17 348 3.2 8.0 0.00 2.59 2.59 96 1013.5
20260509021514 18 181 1.6 9.7 0.00 2.59 2.59 96 1013.8
20260509021003 17 143 6.4 9.7 0.00 2.59 2.59 96 1013.9
20260509020508 17 99 3.2 9.7 0.00 2.59 2.59 96 1013.5
20260509020020 17 102 3.2 12.9 0.00 2.59 2.59 96 1013.6
20260509015505 17 128 6.4 12.9 0.00 2.59 2.59 96 1013.5
20260509015005 17 134 6.4 11.3 0.00 2.59 2.59 96 1013.5
20260509014523 17 122 6.4 11.3 0.00 2.59 2.59 96 1013.6
20260509014007 17 127 4.8 11.3 0.00 2.59 2.59 96 1013.8
20260509013508 18 106 6.4 11.3 0.00 2.59 2.59 96 1013.9
20260509013026 18 117 6.4 9.7 0.00 2.59 2.59 96 1014.3
20260509012504 18 122 4.8 6.4 0.00 2.59 2.59 96 1014.3
20260509012004 18 122 3.2 4.8 0.00 2.59 2.59 96 1014.5
20260509011512 18 100 1.6 3.2 0.00 2.59 2.59 96 1014.7
20260509011005 18 124 0.0 1.6 0.00 2.59 2.59 96 1015.0
20260509010503 18 124 0.0 3.2 0.00 2.59 2.59 96 1015.1
20260509010019 18 124 1.6 3.2 0.00 2.59 2.59 96 1015.0
20260509005504 18 130 1.6 3.2 0.00 2.59 2.59 96 1015.0
20260509005006 18 130 3.2 3.2 0.00 2.59 2.59 96 1014.9
20260509004534 18 87 0.0 0.0 0.00 2.59 2.59 96 1014.9
20260509004005 18 87 0.0 3.2 0.00 2.59 2.59 96 1015.0
20260509003506 18 76 0.0 3.2 0.00 2.59 2.59 96 1015.2
20260509003025 18 9 0.0 3.2 0.00 2.59 2.59 96 1015.2
20260509002511 18 78 0.0 3.2 0.00 2.59 2.59 96 1015.3
20260509002006 18 25 1.6 4.8 0.00 2.59 2.59 96 1015.3
20260509001510 18 331 0.0 4.8 0.00 2.59 2.59 96 1015.4
20260509001005 18 10 1.6 4.8 0.00 2.59 2.59 96 1015.2
20260509000502 18 22 0.0 4.8 0.00 2.59 2.59 96 1015.0
20260509000024 18 86 3.2 4.8 0.00 2.59 2.59 96 1014.9
20260508235503 18 75 1.6 4.8 0.00 2.59 2.59 96 1015.1
20260508235006 18 12 0.0 3.2 0.00 2.59 2.59 96 1015.0
20260508234521 18 33 0.0 6.4 0.00 2.59 2.59 96 1015.1
20260508234005 18 39 3.2 6.4 0.00 2.59 2.59 96 1015.0
20260508233510 18 44 0.0 4.8 0.03 2.59 2.59 96 1015.2
20260508233024 18 38 0.0 6.4 0.03 2.59 2.59 96 1015.4
20260508232505 18 126 1.6 8.0 0.05 2.59 2.59 96 1015.5
20260508232008 18 327 3.2 8.0 0.10 2.59 2.59 96 1015.4
20260508231524 18 306 4.8 8.0 0.15 2.59 2.59 96 1015.4
20260508231008 18 19 3.2 6.4 0.15 2.59 2.59 96 1015.3
20260508230502 18 9 3.2 6.4 0.18 2.59 2.59 96 1015.2
20260508230012 18 99 4.8 6.4 0.18 2.59 2.59 96 1015.0
20260508225503 18 98 1.6 4.8 0.18 2.59 2.59 96 1015.3
20260508225008 18 56 1.6 6.4 0.18 2.59 2.59 96 1015.2
20260508224517 18 9 1.6 6.4 0.18 2.59 2.59 96 1015.3
20260508224007 18 5 1.6 12.9 0.18 2.59 2.59 96 1015.5
20260508223507 18 309 3.2 12.9 0.18 2.57 2.57 96 1015.4
20260508223031 18 300 8.0 12.9 0.18 2.57 2.57 96 1015.5
20260508222507 18 336 3.2 6.4 0.15 2.54 2.54 95 1014.8
20260508222008 18 163 6.4 6.4 0.15 2.49 2.49 95 1014.5
20260508221525 18 147 0.0 4.8 0.43 2.44 2.44 95 1014.2
20260508221008 18 159 3.2 4.8 1.09 2.44 2.44 95 1014.2
20260508220508 18 206 1.6 6.4 1.55 2.41 2.41 95 1014.1
20260508220026 18 89 4.8 8.0 1.75 2.41 2.41 95 1013.6
20260508215503 18 77 4.8 11.3 1.78 2.41 2.41 95 1013.5
20260508215004 18 90 4.8 11.3 1.80 2.41 2.41 95 1013.6
20260508214518 18 82 4.8 11.3 1.83 2.41 2.41 95 1013.6
20260508214006 18 64 3.2 8.0 1.88 2.41 2.41 95 1013.7
20260508213505 18 43 1.6 12.9 1.93 2.39 2.39 95 1013.9
20260508213024 18 323 4.8 17.7 2.08 2.39 2.39 95 1014.0
20260508212509 18 20 4.8 17.7 2.34 2.39 2.39 95 1013.9
20260508212009 18 41 6.4 19.3 2.29 2.34 2.34 94 1013.8
20260508211524 19 59 11.3 19.3 1.96 2.01 2.01 94 1014.1
20260508211006 19 9 6.4 17.7 1.32 1.32 1.32 94 1015.6
20260508210507 19 248 6.4 17.7 0.86 0.86 0.86 94 1016.0
20260508210029 20 298 6.4 17.7 0.66 0.66 0.66 93 1014.7
20260508205508 20 360 12.9 17.7 0.64 0.64 0.64 94 1013.9
20260508205002 20 331 6.4 14.5 0.61 0.61 0.61 94 1013.8
20260508204513 20 5 4.8 14.5 0.58 0.58 0.58 94 1013.7
20260508204006 20 9 3.2 16.1 0.53 0.53 0.53 93 1013.8
20260508203506 21 9 8.0 14.5 0.46 0.46 0.46 93 1014.0
20260508203021 21 301 8.0 14.5 0.30 0.30 0.30 92 1014.2
20260508202506 21 263 4.8 9.7 0.05 0.05 0.05 91 1013.9
20260508202006 21 311 3.2 4.8 0.05 0.05 0.05 90 1013.2
20260508201526 22 344 0.0 1.6 0.05 0.05 0.05 89 1012.9
20260508201012 22 257 0.0 6.4 0.03 0.03 0.03 88 1012.9
20260508200506 22 117 1.6 6.4 0.00 0.00 0.00 87 1012.5
20260508200031 22 86 3.2 8.0 0.00 0.00 0.00 86 1012.5
20260508195506 22 76 6.4 8.0 0.00 0.00 0.00 86 1012.7
20260508195007 22 105 3.2 4.8 0.00 0.00 0.00 85 1013.0
20260508194552 22 78 3.2 4.8 0.00 0.00 0.00 85 1013.2
20260508194005 22 58 3.2 4.8 0.00 0.00 0.00 84 1013.3
20260508193506 22 78 0.0 3.2 0.00 0.00 0.00 84 1013.6
20260508193021 22 73 0.0 3.2 0.00 0.00 0.00 84 1013.8
20260508192506 22 79 0.0 3.2 0.00 0.00 0.00 84 1013.9
20260508192007 22 35 0.0 3.2 0.00 0.00 0.00 84 1013.9
20260508191523 22 121 3.2 3.2 0.00 0.00 0.00 84 1013.8
20260508191007 22 111 1.6 3.2 0.00 0.00 0.00 84 1013.9
20260508190510 22 73 1.6 3.2 0.00 0.00 0.00 84 1013.9
20260508190026 22 121 0.0 0.0 0.00 0.00 0.00 83 1014.1
20260508185508 22 138 0.0 0.0 0.00 0.00 0.00 82 1014.1
20260508185011 22 152 0.0 0.0 0.00 0.00 0.00 83 1014.2
20260508184532 22 131 0.0 4.8 0.00 0.00 0.00 83 1014.1
20260508184012 22 175 0.0 6.4 0.00 0.03 0.00 83 1014.2
20260508183509 22 129 1.6 8.0 0.00 0.03 0.00 83 1014.1
20260508183016 22 144 3.2 8.0 0.00 0.03 0.00 82 1014.1
20260508182508 22 134 6.4 8.0 0.00 0.03 0.00 82 1014.1
20260508182007 22 146 3.2 9.7 0.00 0.03 0.00 82 1014.1
20260508181532 22 134 6.4 9.7 0.00 0.03 0.00 80 1014.1
20260508181009 22 126 1.6 8.0 0.00 0.03 0.00 80 1014.3
20260508180509 22 133 4.8 8.0 0.00 0.03 0.00 79 1014.3
20260508180006 22 146 4.8 8.0 0.00 0.03 0.00 80 1014.4
20260508175503 22 172 4.8 8.0 0.00 0.03 0.00 79 1014.5
20260508175004 22 92 4.8 6.4 0.00 0.03 0.00 79 1014.6
20260508174510 22 128 1.6 11.3 0.00 0.03 0.00 78 1014.7
20260508174003 22 101 6.4 11.3 0.00 0.03 0.00 78 1014.9
20260508173503 22 134 3.2 11.3 0.00 0.03 0.00 78 1015.0
20260508173026 22 150 3.2 12.9 0.00 0.03 0.00 77 1015.1
20260508172503 22 154 4.8 12.9 0.00 0.03 0.00 77 1015.2
20260508172003 22 146 4.8 9.7 0.00 0.03 0.00 79 1015.2
20260508171522 22 98 6.4 9.7 0.00 0.03 0.00 80 1015.2
20260508171003 22 135 3.2 9.7 0.00 0.03 0.00 79 1015.3
20260508170502 22 169 4.8 11.3 0.00 0.03 0.00 79 1015.2
20260508170006 22 84 3.2 11.3 0.00 0.03 0.00 80 1015.2
20260508165504 22 140 6.4 9.7 0.00 0.03 0.00 80 1015.2
20260508165004 22 155 4.8 9.7 0.00 0.05 0.00 80 1015.2
20260508164515 21 113 6.4 9.7 0.00 0.08 0.00 80 1015.2
20260508164004 21 99 4.8 9.7 0.00 0.13 0.00 81 1015.3
20260508163504 21 105 3.2 6.4 0.00 0.20 0.00 81 1015.4
20260508163018 21 105 4.8 6.4 0.00 0.23 0.00 82 1015.5
20260508162504 21 148 3.2 9.7 0.00 0.23 0.00 80 1015.6
20260508162004 21 61 3.2 9.7 0.00 0.28 0.00 82 1015.6
20260508161521 21 112 3.2 11.3 0.00 0.61 0.00 81 1015.6
20260508161003 21 112 3.2 11.3 0.00 0.94 0.00 81 1015.6
20260508160503 21 87 6.4 12.9 0.00 1.24 0.00 80 1015.6
20260508160021 21 97 8.0 14.5 0.00 1.37 0.00 79 1015.6
20260508155503 21 87 8.0 14.5 0.00 1.40 0.00 79 1015.6
20260508155004 21 44 8.0 14.5 0.00 1.42 0.00 79 1015.7
20260508154508 21 80 4.8 12.9 0.00 2.64 0.00 80 1015.5
20260508154004 21 71 4.8 11.3 0.00 4.01 0.00 81 1015.6
20260508153505 21 42 4.8 11.3 0.00 4.01 0.00 81 1015.6
20260508153012 21 70 4.8 11.3 0.00 4.01 0.00 81 1015.7
20260508152502 21 88 4.8 11.3 0.00 4.01 0.00 82 1015.9
20260508152006 21 91 6.4 11.3 0.00 4.01 0.00 82 1015.7
20260508151512 21 111 3.2 6.4 0.00 4.01 0.00 81 1015.9
20260508151004 21 12 4.8 8.0 0.00 4.01 0.00 82 1015.8
20260508150504 21 59 3.2 11.3 0.00 4.01 0.00 82 1015.9
20260508150015 21 73 4.8 11.3 0.00 4.01 0.00 82 1015.9
20260508145504 21 74 3.2 8.0 0.00 4.01 0.00 82 1016.0
20260508145004 21 5 1.6 12.9 0.00 4.01 0.00 82 1016.0
20260508144507 21 57 4.8 12.9 0.00 4.01 0.00 81 1016.1
20260508144003 21 82 4.8 12.9 0.00 4.01 0.00 82 1016.2
20260508143504 20 40 4.8 12.9 0.00 4.01 0.00 82 1016.1
20260508143018 20 15 4.8 14.5 0.00 4.01 0.00 82 1015.8
20260508142503 20 5 8.0 14.5 0.00 4.01 0.00 82 1016.0
20260508142004 20 65 4.8 14.5 0.00 4.01 0.00 82 1015.9
20260508141516 20 53 8.0 14.5 0.00 4.01 0.00 83 1015.7
20260508141006 20 62 3.2 11.3 0.00 4.01 0.00 83 1016.0
20260508140502 20 76 6.4 11.3 0.00 4.01 0.00 82 1016.1
20260508140016 20 49 6.4 11.3 0.00 4.01 0.00 82 1016.1
20260508135504 20 53 3.2 12.9 0.00 4.01 0.00 83 1016.1
20260508135003 20 360 6.4 12.9 0.00 4.01 0.00 83 1015.9
20260508134517 20 73 6.4 12.9 0.00 4.01 0.00 83 1015.8
20260508134007 20 19 4.8 8.0 0.00 4.01 0.00 83 1015.7
20260508133503 20 60 4.8 9.7 0.00 4.01 0.00 84 1015.6
20260508133013 20 52 4.8 9.7 0.00 4.01 0.00 84 1015.9
20260508132505 20 127 6.4 9.7 0.00 4.01 0.00 84 1015.6
20260508132002 20 41 6.4 9.7 0.00 4.01 0.00 85 1015.4
20260508131512 20 85 4.8 16.1 0.00 4.01 0.00 85 1015.6
20260508131005 20 28 8.0 16.1 0.00 4.01 0.00 85 1015.5
20260508130505 20 111 6.4 14.5 0.00 4.01 0.00 86 1015.5
20260508130024 20 97 4.8 14.5 0.00 4.01 0.00 86 1015.6
20260508125507 20 75 8.0 14.5 0.00 4.01 0.00 86 1015.6
20260508125008 19 87 4.8 12.9 0.00 4.01 0.00 86 1015.7
20260508124517 19 75 3.2 12.9 0.00 4.01 0.00 87 1015.9
20260508124007 19 26 6.4 12.9 0.00 4.01 0.00 86 1015.8
20260508123504 19 71 6.4 9.7 0.00 4.01 0.00 87 1015.8
20260508123008 19 75 3.2 8.0 0.00 4.01 0.00 87 1016.1
20260508122503 19 24 3.2 6.4 0.00 4.01 0.00 87 1016.1
20260508122005 19 5 0.0 6.4 0.00 4.01 0.00 88 1016.1
20260508121512 19 14 1.6 8.0 0.00 4.01 0.00 88 1016.1
20260508121005 19 40 1.6 8.0 0.00 4.01 0.00 87 1016.2
20260508120503 19 90 1.6 6.4 0.00 4.01 0.00 88 1015.9
20260508120017 19 50 3.2 6.4 0.00 4.01 0.00 88 1015.8
20260508115506 19 360 3.2 6.4 0.00 4.01 0.00 87 1015.8
20260508115005 19 352 1.6 4.8 0.00 4.01 0.00 87 1015.9
20260508114517 19 61 1.6 8.0 0.00 4.01 0.00 87 1015.9
20260508114006 19 307 3.2 8.0 0.00 4.01 0.00 87 1015.9
20260508113507 19 352 4.8 8.0 0.00 4.01 0.00 87 1015.7
20260508113021 19 343 3.2 9.7 0.00 4.01 0.00 87 1015.4
20260508112508 19 23 4.8 9.7 0.00 4.01 0.00 88 1015.2
20260508112004 19 352 3.2 8.0 0.00 4.01 0.00 88 1015.1
20260508111512 19 19 1.6 9.7 0.00 4.01 0.00 88 1015.0
20260508111005 19 15 6.4 9.7 0.00 4.01 0.00 88 1014.7
20260508110504 19 44 1.6 6.4 0.00 4.01 0.00 88 1014.5
20260508110017 19 29 3.2 6.4 0.00 4.01 0.00 88 1014.6
20260508105507 19 5 1.6 4.8 0.00 4.01 0.00 88 1014.9
20260508105009 19 24 0.0 3.2 0.00 4.01 0.00 88 1014.6
20260508104523 19 38 1.6 4.8 0.00 4.01 0.00 88 1014.4
20260508104006 19 66 0.0 4.8 0.00 4.01 0.00 89 1014.2
20260508103507 19 40 0.0 4.8 0.00 4.01 0.00 88 1014.1
20260508103024 19 65 1.6 4.8 0.00 4.01 0.00 89 1014.0
20260508102511 19 69 1.6 8.0 0.00 4.01 0.00 89 1014.0
20260508102007 19 46 4.8 8.0 0.00 4.01 0.00 89 1014.2
20260508101521 19 57 0.0 4.8 0.00 4.01 0.00 89 1014.1
20260508101004 19 55 1.6 4.8 0.00 4.01 0.00 89 1014.2
20260508100504 19 32 3.2 4.8 0.00 4.01 0.00 89 1014.2
20260508100018 19 19 1.6 4.8 0.00 4.01 0.00 89 1014.2
20260508095505 19 27 0.0 6.4 0.00 4.01 0.00 89 1014.2
20260508095006 19 50 3.2 6.4 0.00 4.01 0.00 89 1013.8
20260508094521 19 43 3.2 6.4 0.00 4.01 0.00 89 1013.9
20260508094013 19 29 3.2 6.4 0.00 4.01 0.00 89 1013.9
20260508093507 20 9 4.8 6.4 0.00 4.01 0.00 89 1013.7
20260508093025 20 31 3.2 6.4 0.00 4.01 0.00 89 1013.5
20260508092507 20 63 3.2 4.8 0.00 4.01 0.00 89 1013.5
20260508092007 20 318 1.6 3.2 0.00 4.01 0.00 89 1013.7
20260508091527 20 40 1.6 3.2 0.00 4.01 0.00 89 1013.6
20260508091008 20 12 1.6 3.2 0.00 4.01 0.00 89 1013.7
20260508090510 20 360 1.6 3.2 0.00 4.01 0.00 89 1013.8
20260508090021 20 346 1.6 6.4 0.00 4.01 0.00 89 1013.7
20260508085504 20 35 0.0 6.4 0.00 4.01 0.00 89 1013.8
20260508085004 20 36 1.6 4.8 0.00 4.01 0.00 89 1013.7
20260508084520 20 360 1.6 6.4 0.00 4.01 0.00 89 1013.7
20260508084009 20 5 1.6 6.4 0.00 4.01 0.00 89 1013.7
20260508083507 20 5 1.6 6.4 0.00 4.01 0.00 89 1013.7
20260508083021 20 9 1.6 6.4 0.00 4.01 0.00 89 1013.6
20260508082507 20 31 3.2 6.4 0.00 4.01 0.00 90 1013.6
20260508082008 20 339 1.6 6.4 0.00 4.01 0.00 90 1013.7
20260508081529 20 9 0.0 3.2 0.00 4.01 0.00 91 1013.5
20260508081006 20 29 1.6 3.2 0.00 4.01 0.00 91 1013.6
20260508080515 20 360 0.0 0.0 0.00 4.01 0.00 91 1013.7
20260508080025 20 360 0.0 0.0 0.00 4.01 0.00 91 1013.8
20260508075508 20 360 0.0 0.0 0.00 4.01 0.00 91 1013.6
20260508075005 20 360 0.0 4.8 0.00 4.01 0.00 91 1013.4
20260508074515 20 360 0.0 4.8 0.00 4.01 0.00 91 1013.5
20260508074004 20 18 1.6 4.8 0.00 4.01 0.00 91 1013.6
20260508073506 20 350 0.0 4.8 0.00 4.01 0.00 91 1013.7
20260508073024 20 352 3.2 4.8 0.00 4.01 0.00 91 1013.9
20260508072507 20 328 1.6 4.8 0.00 4.01 0.00 91 1014.0
20260508072006 20 318 0.0 4.8 0.00 4.01 0.00 91 1013.9
20260508071529 20 323 1.6 4.8 0.00 4.01 0.00 91 1014.0
20260508071006 20 311 3.2 6.4 0.00 4.01 0.00 90 1013.9
20260508070504 20 15 0.0 6.4 0.00 4.01 0.00 90 1013.6
20260508070010 20 352 3.2 8.0 0.00 4.01 0.00 90 1013.6
20260508065504 20 5 4.8 12.9 0.00 4.01 0.00 90 1013.6
20260508065005 20 9 3.2 12.9 0.00 4.01 0.00 90 1013.6
20260508064514 20 342 4.8 8.0 0.00 4.01 0.00 90 1013.8
20260508064008 20 322 1.6 8.0 0.00 4.01 0.00 90 1013.9
20260508063506 20 350 1.6 6.4 0.00 4.01 0.00 90 1013.9
20260508063021 21 333 1.6 6.4 0.00 4.01 0.00 90 1014.0
20260508062509 21 348 4.8 8.0 0.00 4.01 0.00 90 1014.0
20260508062007 21 13 1.6 8.0 0.00 4.01 0.00 89 1014.0